CES5480 ZHHH-ZSQD

Flight info

Callsign CES5480
Flight time 1h 17m
Altitude 33100
Route BIVIP7E BIVIP R343 HFE DCT IDVEL IDV91A
Aircraft A321/M-SDE3FGHIRWY/LB1

Departure

Time 2026-05-07 04:45
Airport Wuhan Tianhe International Airport (ZHHH)

Arrival

Time 2026-05-07 06:02
Airport Qingdao Jiaodong International Airport (ZSQD)
Time Latitude Longitude Altitude Speed Heading
2026-05-07 04:26 30.77600 114.20506 108 ft 0 kts 221°
2026-05-07 04:37 30.77615 114.20523 107 ft 4 kts 222°
2026-05-07 04:38 30.77632 114.20544 108 ft 4 kts 257°
2026-05-07 04:38 30.77629 114.20572 106 ft 4 kts 302°
2026-05-07 04:38 30.77619 114.20588 109 ft 0 kts 311°
2026-05-07 04:41 30.77653 114.20544 109 ft 13 kts 311°
2026-05-07 04:41 30.77660 114.20459 109 ft 11 kts 234°
2026-05-07 04:41 30.77601 114.20402 108 ft 14 kts 221°
2026-05-07 04:41 30.77502 114.20301 107 ft 20 kts 221°
2026-05-07 04:42 30.77398 114.20194 107 ft 19 kts 221°
2026-05-07 04:42 30.77299 114.20093 106 ft 18 kts 221°
2026-05-07 04:42 30.77205 114.19998 106 ft 17 kts 222°
2026-05-07 04:42 30.77118 114.19908 105 ft 16 kts 221°
2026-05-07 04:43 30.77104 114.19810 105 ft 13 kts 310°
2026-05-07 04:43 30.77160 114.19735 104 ft 12 kts 311°
2026-05-07 04:43 30.77227 114.19665 105 ft 13 kts 349°
2026-05-07 04:43 30.77289 114.19709 104 ft 10 kts 41°
2026-05-07 04:44 30.77364 114.19787 105 ft 31 kts 41°
2026-05-07 04:44 30.77713 114.20142 106 ft 99 kts 41°
2026-05-07 04:44 30.78362 114.20807 112 ft 148 kts 41°
2026-05-07 04:44 30.79229 114.21687 279 ft 173 kts 41°
2026-05-07 04:45 30.80103 114.22570 1013 ft 164 kts 40°
2026-05-07 04:45 30.80958 114.23437 1514 ft 166 kts 41°
2026-05-07 04:45 30.81878 114.24380 1663 ft 185 kts 38°
2026-05-07 04:45 30.82913 114.25437 1799 ft 210 kts 39°
2026-05-07 04:46 30.84055 114.26607 2293 ft 224 kts 40°
2026-05-07 04:46 30.85225 114.27808 3033 ft 227 kts 40°
2026-05-07 04:46 30.86419 114.29033 3653 ft 234 kts 41°
2026-05-07 04:46 30.87662 114.30309 4230 ft 242 kts 42°
2026-05-07 04:47 30.88955 114.31637 4832 ft 250 kts 41°
2026-05-07 04:47 30.90268 114.33007 5439 ft 256 kts 46°
2026-05-07 04:47 30.91230 114.34751 6056 ft 261 kts 71°
2026-05-07 04:47 30.91649 114.36790 6748 ft 261 kts 77°
2026-05-07 04:48 30.92034 114.38895 7343 ft 267 kts 78°
2026-05-07 04:48 30.92422 114.41017 7868 ft 274 kts 78°
2026-05-07 04:48 30.92823 114.43203 8496 ft 277 kts 77°
2026-05-07 04:48 30.93229 114.45413 9200 ft 281 kts 77°
2026-05-07 04:49 30.93642 114.47669 9831 ft 287 kts 77°
2026-05-07 04:49 30.94061 114.49976 10265 ft 297 kts 77°
2026-05-07 04:49 30.94499 114.52386 10378 ft 317 kts 77°
2026-05-07 04:49 30.94972 114.54981 10507 ft 337 kts 77°
2026-05-07 04:50 30.95468 114.57718 10743 ft 351 kts 77°
2026-05-07 04:50 30.95977 114.60534 11176 ft 359 kts 77°
2026-05-07 04:50 30.96491 114.63386 11653 ft 364 kts 77°
2026-05-07 04:50 30.97019 114.66293 12188 ft 368 kts 77°
2026-05-07 04:51 30.97555 114.69239 12614 ft 376 kts 77°
2026-05-07 04:51 30.98100 114.72241 13117 ft 380 kts 77°
2026-05-07 04:51 30.98646 114.75268 13661 ft 384 kts 77°
2026-05-07 04:51 30.99198 114.78340 14092 ft 390 kts 77°
2026-05-07 04:52 30.99754 114.81451 14551 ft 393 kts 77°
2026-05-07 04:52 31.00316 114.84583 15020 ft 396 kts 77°
2026-05-07 04:52 31.00879 114.87742 15475 ft 399 kts 77°
2026-05-07 04:52 31.01436 114.90880 15682 ft 402 kts 77°
2026-05-07 04:53 31.02081 114.94059 15721 ft 401 kts 71°
2026-05-07 04:53 31.03048 114.97114 16104 ft 403 kts 68°
2026-05-07 04:53 31.04044 115.00190 16577 ft 406 kts 68°
2026-05-07 04:53 31.05041 115.03293 16975 ft 411 kts 68°
2026-05-07 04:54 31.06031 115.06398 17387 ft 415 kts 68°
2026-05-07 04:54 31.07043 115.09572 17802 ft 418 kts 68°
2026-05-07 04:54 31.08066 115.12785 18206 ft 422 kts 68°
2026-05-07 04:54 31.09079 115.15970 18581 ft 425 kts 68°
2026-05-07 04:55 31.10108 115.19217 18941 ft 428 kts 68°
2026-05-07 04:55 31.11142 115.22478 19340 ft 430 kts 68°
2026-05-07 04:55 31.12182 115.25764 19716 ft 433 kts 68°
2026-05-07 04:55 31.13234 115.29088 20052 ft 436 kts 68°
2026-05-07 04:56 31.14289 115.32383 20376 ft 439 kts 68°
2026-05-07 04:56 31.15370 115.35725 20741 ft 441 kts 68°
2026-05-07 04:56 31.16463 115.39089 21092 ft 443 kts 68°
2026-05-07 04:56 31.17563 115.42468 21420 ft 446 kts 68°
2026-05-07 04:57 31.18654 115.45816 21748 ft 448 kts 68°
2026-05-07 04:57 31.19764 115.49237 22094 ft 451 kts 68°
2026-05-07 04:57 31.20878 115.52686 22436 ft 454 kts 68°
2026-05-07 04:57 31.21995 115.56155 22748 ft 456 kts 68°
2026-05-07 04:58 31.23114 115.59632 23070 ft 459 kts 68°
2026-05-07 04:58 31.24241 115.63136 23402 ft 461 kts 68°
2026-05-07 04:58 31.25360 115.66614 23712 ft 464 kts 68°
2026-05-07 04:58 31.26498 115.70153 24003 ft 465 kts 68°
2026-05-07 04:59 31.27637 115.73714 24277 ft 467 kts 68°
2026-05-07 04:59 31.28777 115.77290 24540 ft 469 kts 68°
2026-05-07 04:59 31.29922 115.80883 24793 ft 472 kts 68°
2026-05-07 04:59 31.31061 115.84457 25044 ft 474 kts 68°
2026-05-07 05:00 31.32218 115.88082 25301 ft 476 kts 68°
2026-05-07 05:00 31.33386 115.91713 25566 ft 478 kts 68°
2026-05-07 05:00 31.34573 115.95360 25829 ft 480 kts 67°
2026-05-07 05:00 31.35770 115.99010 26085 ft 482 kts 67°
2026-05-07 05:01 31.36980 116.02684 26332 ft 484 kts 67°
2026-05-07 05:01 31.38191 116.06371 26618 ft 486 kts 67°
2026-05-07 05:01 31.39400 116.10076 26946 ft 489 kts 68°
2026-05-07 05:01 31.40611 116.13805 27200 ft 491 kts 68°
2026-05-07 05:02 31.41811 116.17510 27436 ft 493 kts 68°
2026-05-07 05:02 31.43031 116.21276 27675 ft 495 kts 68°
2026-05-07 05:02 31.44258 116.25077 27906 ft 498 kts 68°
2026-05-07 05:02 31.45482 116.28883 28134 ft 499 kts 68°
2026-05-07 05:03 31.46698 116.32668 28368 ft 501 kts 68°
2026-05-07 05:03 31.47930 116.36504 28604 ft 503 kts 68°
2026-05-07 05:03 31.49167 116.40353 28849 ft 505 kts 68°
2026-05-07 05:03 31.50410 116.44218 29076 ft 507 kts 68°
2026-05-07 05:04 31.51646 116.48055 29301 ft 509 kts 68°
2026-05-07 05:04 31.52900 116.51947 29503 ft 511 kts 67°
2026-05-07 05:04 31.54154 116.55844 29721 ft 512 kts 68°
2026-05-07 05:04 31.55411 116.59765 29952 ft 514 kts 68°
2026-05-07 05:05 31.56667 116.63698 30215 ft 514 kts 68°
2026-05-07 05:05 31.57917 116.67624 30489 ft 513 kts 68°
2026-05-07 05:05 31.59161 116.71545 30770 ft 512 kts 68°
2026-05-07 05:05 31.60402 116.75456 31043 ft 511 kts 68°
2026-05-07 05:06 31.61647 116.79365 31338 ft 510 kts 68°
2026-05-07 05:06 31.62885 116.83258 31619 ft 509 kts 68°
2026-05-07 05:06 31.64120 116.87154 31881 ft 509 kts 68°
2026-05-07 05:06 31.65338 116.90998 32194 ft 507 kts 68°
2026-05-07 05:07 31.66561 116.94865 32493 ft 506 kts 68°
2026-05-07 05:07 31.67787 116.98747 32780 ft 505 kts 68°
2026-05-07 05:07 31.69000 117.02583 33028 ft 505 kts 68°
2026-05-07 05:07 31.70224 117.06489 33117 ft 500 kts 69°
2026-05-07 05:08 31.72569 117.14081 33103 ft 495 kts 69°
2026-05-07 05:08 31.74886 117.21654 33094 ft 495 kts 69°
2026-05-07 05:09 31.77932 117.28853 33093 ft 491 kts 52°
2026-05-07 05:09 31.82619 117.34594 33095 ft 483 kts 33°
2026-05-07 05:10 31.88035 117.39250 33102 ft 482 kts 32°
2026-05-07 05:10 31.93423 117.43912 33111 ft 482 kts 33°
2026-05-07 05:11 31.98842 117.48623 33089 ft 483 kts 33°
2026-05-07 05:11 32.04258 117.53335 33073 ft 484 kts 33°
2026-05-07 05:12 32.09647 117.58033 33094 ft 485 kts 33°
2026-05-07 05:12 32.15085 117.62760 33091 ft 485 kts 33°
2026-05-07 05:13 32.20504 117.67486 33087 ft 486 kts 33°
2026-05-07 05:13 32.25948 117.72250 33086 ft 486 kts 33°
2026-05-07 05:14 32.31385 117.77006 33112 ft 486 kts 33°
2026-05-07 05:14 32.36808 117.81755 33106 ft 486 kts 33°
2026-05-07 05:15 32.42219 117.86503 33107 ft 486 kts 33°
2026-05-07 05:15 32.47661 117.91293 33134 ft 486 kts 32°
2026-05-07 05:16 32.53093 117.96083 33125 ft 486 kts 32°
2026-05-07 05:16 32.58495 118.00846 33128 ft 486 kts 32°
2026-05-07 05:17 32.63924 118.05634 33138 ft 486 kts 32°
2026-05-07 05:17 32.68450 118.09632 33133 ft 486 kts 32°
2026-05-07 05:18 32.74768 118.15231 33128 ft 487 kts 32°
2026-05-07 05:18 32.80198 118.20068 33131 ft 487 kts 33°
2026-05-07 05:19 32.84717 118.24090 33132 ft 487 kts 32°
2026-05-07 05:19 32.90163 118.28927 33155 ft 488 kts 32°
2026-05-07 05:20 32.95606 118.33773 33145 ft 488 kts 32°
2026-05-07 05:20 33.01010 118.38595 33136 ft 488 kts 32°
2026-05-07 05:21 33.09172 118.45907 33131 ft 488 kts 32°
2026-05-07 05:22 33.14579 118.50745 33138 ft 488 kts 32°
2026-05-07 05:22 33.20030 118.55630 33139 ft 489 kts 32°
2026-05-07 05:23 33.25460 118.60517 33161 ft 489 kts 32°
2026-05-07 05:23 33.30893 118.65417 33138 ft 489 kts 32°
2026-05-07 05:24 33.36320 118.70320 33131 ft 489 kts 32°
2026-05-07 05:24 33.41737 118.75205 33148 ft 490 kts 32°
2026-05-07 05:25 33.47186 118.80129 33152 ft 491 kts 32°
2026-05-07 05:25 33.52649 118.85089 33147 ft 491 kts 32°
2026-05-07 05:26 33.58071 118.90019 33153 ft 492 kts 32°
2026-05-07 05:26 33.63533 118.94993 33190 ft 492 kts 31°
2026-05-07 05:27 33.68968 118.99938 33156 ft 492 kts 32°
2026-05-07 05:27 33.74430 119.04923 33153 ft 493 kts 32°
2026-05-07 05:28 33.79864 119.09889 33155 ft 493 kts 32°
2026-05-07 05:28 33.85328 119.14893 33174 ft 493 kts 31°
2026-05-07 05:29 33.90769 119.19880 33171 ft 492 kts 31°
2026-05-07 05:29 33.96232 119.24887 33164 ft 492 kts 31°
2026-05-07 05:30 34.01681 119.29889 33182 ft 492 kts 31°
2026-05-07 05:30 34.07095 119.34874 33174 ft 492 kts 31°
2026-05-07 05:31 34.12535 119.39907 33174 ft 492 kts 31°
2026-05-07 05:31 34.17952 119.44929 33173 ft 492 kts 31°
2026-05-07 05:32 34.23396 119.49961 33194 ft 492 kts 30°
2026-05-07 05:32 34.28836 119.54992 33147 ft 491 kts 31°
2026-05-07 05:33 34.34234 119.60009 33145 ft 492 kts 31°
2026-05-07 05:33 34.39664 119.65068 33165 ft 492 kts 31°
2026-05-07 05:34 34.45071 119.70109 33155 ft 493 kts 31°
2026-05-07 05:34 34.50513 119.75188 32927 ft 494 kts 31°
2026-05-07 05:34 34.53229 119.77729 32681 ft 492 kts 31°
2026-05-07 05:35 34.55939 119.80275 32471 ft 491 kts 30°
2026-05-07 05:35 34.58647 119.82823 32198 ft 491 kts 30°
2026-05-07 05:35 34.61322 119.85339 31954 ft 489 kts 31°
2026-05-07 05:35 34.64011 119.87868 31709 ft 488 kts 31°
2026-05-07 05:36 34.66697 119.90391 31459 ft 487 kts 30°
2026-05-07 05:36 34.69369 119.92897 31222 ft 485 kts 30°
2026-05-07 05:36 34.72047 119.95403 30983 ft 484 kts 30°
2026-05-07 05:36 34.74705 119.97897 30775 ft 483 kts 30°
2026-05-07 05:37 34.77329 120.00370 30538 ft 482 kts 31°
2026-05-07 05:37 34.79981 120.02874 30306 ft 481 kts 31°
2026-05-07 05:37 34.82627 120.05374 30071 ft 480 kts 31°
2026-05-07 05:37 34.85262 120.07868 29780 ft 477 kts 31°
2026-05-07 05:38 34.87881 120.10351 29211 ft 475 kts 31°
2026-05-07 05:38 34.90451 120.12786 28643 ft 473 kts 31°
2026-05-07 05:38 34.93057 120.15254 28081 ft 471 kts 31°
2026-05-07 05:38 34.95636 120.17694 27524 ft 469 kts 31°
2026-05-07 05:39 34.98210 120.20130 26974 ft 467 kts 31°
2026-05-07 05:39 35.00782 120.22564 26434 ft 465 kts 31°
2026-05-07 05:39 35.03331 120.24980 25914 ft 463 kts 31°
2026-05-07 05:39 35.05837 120.27361 25399 ft 461 kts 31°
2026-05-07 05:40 35.08361 120.29766 24904 ft 459 kts 32°
2026-05-07 05:40 35.10884 120.32173 24364 ft 458 kts 32°
2026-05-07 05:40 35.13397 120.34570 23854 ft 457 kts 32°
2026-05-07 05:40 35.15902 120.36957 23293 ft 456 kts 32°
2026-05-07 05:41 35.18392 120.39335 22767 ft 452 kts 32°
2026-05-07 05:41 35.20858 120.41690 22240 ft 448 kts 32°
2026-05-07 05:41 35.23294 120.44015 21737 ft 444 kts 32°
2026-05-07 05:41 35.25730 120.46340 21241 ft 441 kts 32°
2026-05-07 05:42 35.28116 120.48622 20777 ft 437 kts 33°
2026-05-07 05:42 35.30506 120.50914 20207 ft 431 kts 33°
2026-05-07 05:42 35.32837 120.53147 19647 ft 422 kts 32°
2026-05-07 05:42 35.35305 120.54992 19165 ft 407 kts 17°
2026-05-07 05:43 35.37954 120.55997 18745 ft 392 kts
2026-05-07 05:43 35.40599 120.56209 18290 ft 379 kts 350°
2026-05-07 05:43 35.43160 120.55691 17799 ft 366 kts 337°
2026-05-07 05:43 35.45520 120.54615 17389 ft 358 kts 332°
2026-05-07 05:44 35.47805 120.53501 16919 ft 355 kts 332°
2026-05-07 05:44 35.50108 120.52379 16474 ft 352 kts 332°
2026-05-07 05:44 35.52347 120.51291 16043 ft 349 kts 332°
2026-05-07 05:44 35.54605 120.50195 15610 ft 347 kts 332°
2026-05-07 05:45 35.56840 120.49112 15168 ft 344 kts 332°
2026-05-07 05:45 35.59063 120.48033 14733 ft 342 kts 332°
2026-05-07 05:45 35.61269 120.46959 14305 ft 340 kts 332°
2026-05-07 05:45 35.63467 120.45888 13869 ft 338 kts 333°
2026-05-07 05:46 35.65628 120.44838 13404 ft 336 kts 333°
2026-05-07 05:46 35.67801 120.43780 12968 ft 333 kts 333°
2026-05-07 05:46 35.69946 120.42732 12546 ft 331 kts 333°
2026-05-07 05:46 35.72081 120.41687 12107 ft 329 kts 333°
2026-05-07 05:47 35.74202 120.40649 11669 ft 327 kts 333°
2026-05-07 05:47 35.76284 120.39630 11243 ft 325 kts 334°
2026-05-07 05:47 35.78381 120.38603 10814 ft 322 kts 334°
2026-05-07 05:47 35.80464 120.37586 10383 ft 321 kts 334°
2026-05-07 05:48 35.82519 120.36585 10178 ft 311 kts 334°
2026-05-07 05:48 35.84504 120.35617 10055 ft 300 kts 334°
2026-05-07 05:48 35.86383 120.34697 9930 ft 288 kts 334°
2026-05-07 05:48 35.88221 120.33794 9705 ft 281 kts 334°
2026-05-07 05:49 35.90035 120.32898 9350 ft 278 kts 334°
2026-05-07 05:49 35.91842 120.32005 8750 ft 283 kts 334°
2026-05-07 05:49 35.93657 120.31109 8046 ft 281 kts 335°
2026-05-07 05:49 35.95408 120.30253 7794 ft 258 kts 335°
2026-05-07 05:50 35.97022 120.29461 7677 ft 243 kts 333°
2026-05-07 05:50 35.98397 120.28369 7545 ft 229 kts 317°
2026-05-07 05:50 35.99566 120.27047 7063 ft 228 kts 317°
2026-05-07 05:50 36.00715 120.25747 6614 ft 218 kts 317°
2026-05-07 05:51 36.01824 120.24494 6224 ft 215 kts 317°
2026-05-07 05:51 36.02910 120.23266 5832 ft 214 kts 318°
2026-05-07 05:51 36.03998 120.22036 5593 ft 205 kts 318°
2026-05-07 05:51 36.04996 120.20908 5562 ft 183 kts 318°
2026-05-07 05:52 36.05895 120.19892 5503 ft 171 kts 319°
2026-05-07 05:52 36.06898 120.19126 5446 ft 171 kts 335°
2026-05-07 05:52 36.08015 120.18600 5309 ft 171 kts 339°
2026-05-07 05:52 36.09129 120.18136 5100 ft 171 kts 340°
2026-05-07 05:53 36.10260 120.17684 4900 ft 170 kts 340°
2026-05-07 05:53 36.11390 120.17239 4672 ft 170 kts 340°
2026-05-07 05:53 36.12521 120.16797 4443 ft 170 kts 341°
2026-05-07 05:53 36.13649 120.16356 4213 ft 170 kts 341°
2026-05-07 05:54 36.14788 120.15903 5889 ft 175 kts 340°
2026-05-07 05:54 36.15940 120.15458 5415 ft 174 kts 340°
2026-05-07 05:54 36.17056 120.14922 4949 ft 170 kts 324°
2026-05-07 05:54 36.17730 120.13737 4472 ft 175 kts 292°
2026-05-07 05:55 36.17747 120.12182 3976 ft 192 kts 256°
2026-05-07 05:55 36.16896 120.10913 3897 ft 201 kts 214°
2026-05-07 05:55 36.15504 120.10539 3899 ft 212 kts 175°
2026-05-07 05:55 36.14178 120.11245 3896 ft 212 kts 135°
2026-05-07 05:56 36.13443 120.12751 3898 ft 200 kts 95°
2026-05-07 05:56 36.13591 120.14324 3881 ft 178 kts 56°
2026-05-07 05:56 36.14414 120.15361 3863 ft 166 kts 21°
2026-05-07 05:56 36.15507 120.15600 3763 ft 159 kts 349°
2026-05-07 05:57 36.16569 120.15219 3595 ft 159 kts 342°
2026-05-07 05:57 36.17620 120.14807 3408 ft 159 kts 342°
2026-05-07 05:57 36.18678 120.14392 3200 ft 158 kts 343°
2026-05-07 05:57 36.19725 120.13982 2979 ft 158 kts 343°
2026-05-07 05:58 36.20762 120.13577 2780 ft 158 kts 343°
2026-05-07 05:58 36.21810 120.13167 2562 ft 158 kts 343°
2026-05-07 05:58 36.22842 120.12763 2349 ft 152 kts 343°
2026-05-07 05:58 36.23826 120.12378 2174 ft 143 kts 343°
2026-05-07 05:59 36.24749 120.12017 1978 ft 137 kts 342°
2026-05-07 05:59 36.25661 120.11660 1796 ft 136 kts 342°
2026-05-07 05:59 36.26559 120.11308 1596 ft 135 kts 343°
2026-05-07 05:59 36.27446 120.10961 1423 ft 134 kts 342°
2026-05-07 06:00 36.28342 120.10610 1230 ft 135 kts 341°
2026-05-07 06:00 36.29250 120.10254 1033 ft 136 kts 342°
2026-05-07 06:00 36.30141 120.09904 856 ft 140 kts 339°
2026-05-07 06:00 36.31086 120.09532 679 ft 141 kts 341°
2026-05-07 06:01 36.32006 120.09173 488 ft 137 kts 343°
2026-05-07 06:01 36.32927 120.08809 302 ft 139 kts 341°
2026-05-07 06:01 36.33849 120.08444 113 ft 139 kts 342°
2026-05-07 06:01 36.34724 120.08102 41 ft 123 kts 341°
2026-05-07 06:02 36.35404 120.07835 38 ft 75 kts 342°
2026-05-07 06:02 36.35733 120.07705 39 ft 34 kts 344°
2026-05-07 06:02 36.35945 120.07702 39 ft 14 kts 11°
2026-05-07 06:02 36.36029 120.07730 39 ft 11 kts 39°
2026-05-07 06:03 36.36056 120.07816 39 ft 10 kts 76°
2026-05-07 06:03 36.36076 120.07896 39 ft 9 kts 72°
2026-05-07 06:03 36.36095 120.07967 39 ft 8 kts 72°
2026-05-07 06:03 36.36110 120.08029 39 ft 7 kts 73°
2026-05-07 06:04 36.36124 120.08094 39 ft 7 kts 83°
2026-05-07 06:04 36.36117 120.08158 39 ft 8 kts 102°
2026-05-07 06:04 36.36110 120.08216 39 ft 5 kts 77°
2026-05-07 06:04 36.36135 120.08241 38 ft 4 kts 28°
2026-05-07 06:05 36.36160 120.08247 38 ft 3 kts 13°
2026-05-07 06:05 36.36179 120.08252 38 ft 2 kts 12°
2026-05-07 06:05 36.36187 120.08255 38 ft 1 kts 12°
2026-05-07 06:05 36.36190 120.08255 38 ft 0 kts 12°